Regional Weather Roundup
Issued by NWS

Home | Current Version | Previous Version | Text Only | Print | Product List | Glossary On
Versions: 1 2 3 4 5 6 7 8 9 10 11 12 13 14 15 16 17 18 19 20 21 22 23 24 25 26 27 28 29 30 31 32 33 34 35 36 37 38 39 40 41 42 43 44 45 46 47 48 49 50
000
ASUS43 KFSD 020602
RWRSD

WEATHER ROUNDUP FOR SOUTH DAKOTA
NATIONAL WEATHER SERVICE SIOUX FALLS SD
100 AM CDT TUE JUN 02 2015

NOTE: "FAIR" INDICATES FEW OR NO CLOUDS BELOW 12,000 FEET WITH NO
SIGNIFICANT WEATHER AND/OR OBSTRUCTIONS TO VISIBILITY.


SDZ001>005-009-010-012>017-020700-
NORTHWEST AND NORTH CENTRAL SOUTH DAKOTA

CITY           SKY/WX    TMP DP  RH WIND       PRES   REMARKS
BUFFALO          N/A     68  55  63 W24G44    29.75R
FAITH            N/A     65  52  62 S9        29.75F
MOBRIDGE       CLOUDY    70  62  76 SE13      29.77F
$$

SDZ012>016-024>037-041>051-057-063-072>074-020700-
SOUTHWEST AND SOUTH CENTRAL SOUTH DAKOTA

CITY           SKY/WX    TMP DP  RH WIND       PRES   REMARKS
RAPID CTY ARPT CLOUDY    65  55  70 E9        29.82F
PIERRE         CLOUDY    69  60  73 SE12G21   29.81F
CUSTER         MOCLDY    62  43  49 S7        29.97F
ELLSWORTH AFB  CLOUDY    68  58  69 SE10      29.81F
PHILIP         CLOUDY    71  62  73 SE6       29.81F
PINE RIDGE     CLOUDY    68  51  54 SW9       29.90S
WINNER         FAIR      68  58  70 S20G26    29.88F
$$

SDZ004>011-016>023-039-040-020700-
NORTHEAST SOUTH DAKOTA

CITY           SKY/WX    TMP DP  RH WIND       PRES   REMARKS
ABERDEEN       MOCLDY    66  53  63 S17       29.87S
WATERTOWN      PTCLDY    64  49  57 S16       29.96S
BROOKINGS      PTCLDY    63  48  59 S15       30.01R
SISSETON         N/A     60  51  72 S10       29.92F
$$

SDZ017-020-022-023-036>040-048>070-020700-
SOUTHEAST SOUTH DAKOTA

CITY           SKY/WX    TMP DP  RH WIND       PRES   REMARKS
SIOUX FALLS    MOCLDY    64  50  60 S13       30.01S
HURON          CLOUDY    66  52  60 S15G25    29.91S
CHAMBERLAIN    CLOUDY    67  58  73 S14G20    29.89S
MITCHELL       CLOUDY    66  53  63 S16       29.95S
YANKTON        MOCLDY    64  52  63 SE13      29.98S
$$

ABBREVIATIONS USED IN REMARKS
   TC - TEMPERATURE IN CELSIUS
  WCI - WIND CHILL INDEX
   HX - HEAT INDEX
  VSB - VISIBILITY




USA.gov is the U.S. government's official web portal to all federal, state and local government web resources and services.